Weather History for KLAR - April, 2014

Change the Weather History Date:

Friday, April 25, 2014

  Actual Average Record
Temperature  
Mean Temperature 47 °F 41 °F  
Max Temperature 62 °F 54 °F 72 °F (1975)
Min Temperature 31 °F 27 °F 12 °F (1950)
Degree Days  
Heating Degree Days 18 24  
Month to date heating degree days 651 698  
Since 1 July heating degree days 7692 7933  
Cooling Degree Days 0 0  
Month to date cooling degree days 0 0  
Year to date cooling degree days 0 0  
Moisture  
Dew Point 22 °F    
Average Humidity 40    
Maximum Humidity 61    
Minimum Humidity 19    
Precipitation  
Precipitation 0.00 in 0.04 in 1.00 in (1965)
Month to date precipitation 0.13 0.85  
Year to date precipitation 1.86 2.04  
Sea Level Pressure  
Sea Level Pressure 29.67 in    
Wind  
Wind Speed 14 mph (South)    
Max Wind Speed 28 mph    
Max Gust Speed 34 mph    
Visibility 10 miles    
Events      
T = Trace of Precipitation, MM = Missing Value Source: NWS Daily Summary

Daily Weather History Graph

Daily Weather History Graph

Search for Another Location

Airport or City:

Trip Planner

Search our weather history database for the weather conditions in past years. The results will help you decide how hot, cold, wet, or windy it might be!

Date:

Astronomy

Apr. 25, 2014 Rise Set
Actual Time 6:08 AM MDT 7:53 PM MDT
Civil Twilight 5:38 AM MDT 8:23 PM MDT
Nautical Twilight 5:02 AM MDT 8:59 PM MDT
Astronomical Twilight 4:24 AM MDT 9:37 PM MDT
Moon 4:00 AM MDT (4/25) 4:16 PM MDT (4/25)
Length of Visible Light 14h 44m
Length of Day
13h 45m
Waning Crescent, 15% of the Moon is Illuminated
Apr 25
Waning Crescent
Apr 29
New
May 6
First Quarter
May 14
Full
May 21
Last Quarter

Hourly Weather History & Observations

Time (MDT) Temp. Windchill Dew Point Humidity Pressure Visibility Wind Dir Wind Speed Gust Speed Precip Events Conditions
12:53 AM 43.0 °F 34.5 °F 21.9 °F 43% 29.82 in 10.0 mi West 19.6 mph 32.2 mph N/A   Overcast
1:53 AM 39.0 °F 31.4 °F 23.0 °F 53% 29.82 in 10.0 mi SW 12.7 mph - N/A   Mostly Cloudy
2:53 AM 36.0 °F 29.6 °F 21.9 °F 57% 29.81 in 10.0 mi West 8.1 mph - N/A   Clear
3:53 AM 33.1 °F - 21.9 °F 64% 29.83 in 10.0 mi Calm Calm - N/A   Clear
4:53 AM 34.0 °F 28.0 °F 21.9 °F 61% 29.82 in 10.0 mi WSW 6.9 mph - N/A   Clear
5:53 AM 35.1 °F 25.5 °F 19.0 °F 52% 29.80 in 10.0 mi WSW 15.0 mph - N/A   Clear
6:53 AM 39.9 °F 30.8 °F 18.0 °F 41% 29.76 in 10.0 mi WSW 18.4 mph - N/A   Clear
7:53 AM 43.0 °F 40.3 °F 23.0 °F 45% 29.75 in 10.0 mi West 4.6 mph - N/A   Clear
8:53 AM 46.0 °F 42.5 °F 21.0 °F 37% 29.74 in 10.0 mi SSE 6.9 mph - N/A   Clear
9:53 AM 54.0 °F - 21.0 °F 28% 29.68 in 10.0 mi South 18.4 mph 23.0 mph N/A   Clear
10:53 AM 55.0 °F - 16.0 °F 22% 29.68 in 10.0 mi SSW 20.7 mph 28.8 mph N/A   Clear
11:53 AM 57.0 °F - 15.1 °F 19% 29.66 in 10.0 mi WSW 20.7 mph 29.9 mph N/A   Partly Cloudy
12:53 PM 57.0 °F - 15.1 °F 19% 29.64 in 10.0 mi SW 20.7 mph 27.6 mph N/A   Scattered Clouds
1:53 PM 55.9 °F - 24.1 °F 29% 29.64 in 10.0 mi SE 21.9 mph 25.3 mph N/A   Mostly Cloudy
2:00 PM 55.9 °F - 24.1 °F 29% 29.83 in 10.0 mi SE 16.1 mph 26.5 mph N/A   Mostly Cloudy
2:53 PM 55.0 °F - 25.0 °F 31% 29.64 in 10.0 mi SSE 20.7 mph - N/A   Overcast
3:53 PM 55.9 °F - 28.0 °F 34% 29.63 in 9.0 mi SE 21.9 mph - N/A   Scattered Clouds
4:53 PM 55.0 °F - 27.0 °F 34% 29.61 in 10.0 mi SSE 19.6 mph - N/A   Mostly Cloudy
5:53 PM 54.0 °F - 27.0 °F 35% 29.59 in 10.0 mi SSE 12.7 mph - N/A   Clear
6:53 PM 53.1 °F - 27.0 °F 37% 29.55 in 10.0 mi SE 12.7 mph - N/A   Clear
7:53 PM 50.0 °F - 27.0 °F 41% 29.54 in 10.0 mi South 10.4 mph - N/A   Clear
8:53 PM 48.0 °F - 23.0 °F 37% 29.53 in 10.0 mi SSE 16.1 mph - N/A   Clear
9:53 PM 48.9 °F - 21.9 °F 35% 29.47 in 10.0 mi SSE 12.7 mph - N/A   Clear
10:53 PM 44.1 °F 38.1 °F 24.1 °F 45% 29.49 in 10.0 mi SSW 11.5 mph - N/A   Clear
11:53 PM 43.0 °F 36.8 °F 23.0 °F 45% 29.47 in 10.0 mi South 11.5 mph - N/A   Scattered Clouds